FW5910 Weather Reports


time (UTC)temp
F
wind
direction
speed
knots
gust
knots
rain 1hr
in
rain 24hr
in
rain mn
in
humidity
%
barometer
mb
20260509055403 55 194 0.0 0.9 0.00 0.00 0.00 56 1014.1
20260509054902 55 197 0.0 0.9 0.00 0.00 0.00 58 1014.1
20260509054403 55 216 0.0 0.9 0.00 0.00 0.00 59 1014.1
20260509053903 55 192 0.0 2.6 0.00 0.00 0.00 58 1014.0
20260509053403 56 185 0.0 2.6 0.00 0.00 0.00 56 1013.9
20260509052902 56 184 0.0 0.9 0.00 0.00 0.00 52 1013.9
20260509052404 56 184 0.9 0.9 0.00 0.00 0.00 54 1013.9
20260509051903 56 183 0.9 1.7 0.00 0.00 0.00 54 1013.8
20260509051403 56 182 0.0 1.7 0.00 0.00 0.00 53 1013.8
20260509050904 56 182 0.0 0.9 0.00 0.00 0.00 54 1013.8
20260509050403 56 182 0.0 0.9 0.00 0.00 0.00 54 1013.8
20260509045903 56 182 0.0 0.9 0.00 0.00 0.00 55 1013.7
20260509045407 57 181 0.0 0.9 0.00 0.00 0.00 56 1013.7
20260509044905 57 181 0.0 1.7 0.00 0.00 0.00 55 1013.6
20260509044404 57 181 0.0 1.7 0.00 0.00 0.00 56 1013.7
20260509043903 57 182 0.0 1.7 0.00 0.00 0.00 51 1013.7
20260509043403 58 181 0.0 0.9 0.00 0.00 0.00 51 1013.6
20260509042904 58 182 0.0 1.7 0.00 0.00 0.00 54 1013.7
20260509042403 58 182 0.0 1.7 0.00 0.00 0.00 53 1013.6
20260509041403 58 118 0.9 3.5 0.00 0.00 0.00 56 1013.4
20260509040902 58 118 1.7 4.3 0.00 0.00 0.00 57 1013.4
20260509040406 58 101 0.9 4.3 0.00 0.00 0.00 48 1013.3
20260509035402 57 328 0.9 1.7 0.00 0.00 0.00 51 1013.2
20260509033905 58 329 0.9 2.6 0.00 0.00 0.00 53 1013.1
20260509033405 58 329 0.9 2.6 0.00 0.00 0.00 53 1012.9
20260509032904 58 329 0.9 2.6 0.00 0.00 0.00 55 1012.9
20260509032402 58 329 0.9 2.6 0.00 0.00 0.00 53 1012.8
20260509031402 59 317 0.9 2.6 0.00 0.00 0.00 55 1012.6
20260509030856 59 317 0.9 2.6 0.00 0.00 0.00 53 1012.4
20260509030352 59 347 0.9 1.7 0.00 0.00 0.00 53 1012.2
20260509025844 60 347 0.0 1.7 0.00 0.00 0.00 52 1012.1
20260509024336 60 346 0.9 3.5 0.00 0.00 0.00 52 1012.0
20260509023336 61 83 1.7 7.0 0.00 0.00 0.00 50 1011.9
20260509022835 62 329 2.6 7.8 0.00 0.00 0.00 49 1011.9
20260509022335 62 339 1.7 7.8 0.00 0.00 0.00 44 1011.7
20260509021837 62 0 0.9 3.5 0.00 0.00 0.00 41 1011.7
20260509021337 62 0 0.9 3.5 0.00 0.00 0.00 43 1011.8
20260509020836 63 0 0.9 3.5 0.00 0.00 0.00 41 1011.7
20260509020334 63 0 1.7 4.3 0.00 0.00 0.00 44 1011.6
20260509015835 63 0 1.7 4.3 0.00 0.00 0.00 41 1011.6
20260509015335 63 0 1.7 4.3 0.00 0.00 0.00 43 1011.5
20260509014834 63 0 1.7 4.3 0.00 0.00 0.00 43 1011.5
20260509014335 63 0 2.6 7.0 0.00 0.00 0.00 43 1011.5
20260509013833 64 0 1.7 7.0 0.00 0.00 0.00 43 1011.5
20260509013331 65 0 1.7 5.2 0.00 0.00 0.00 33 1011.4
20260509012833 65 0 0.9 5.2 0.00 0.00 0.00 33 1011.3
20260509012330 65 0 0.9 3.5 0.00 0.00 0.00 34 1011.3
20260509011823 65 0 1.7 4.3 0.00 0.00 0.00 37 1011.3
20260509011317 65 0 1.7 7.8 0.00 0.00 0.00 38 1011.3
20260509010812 64 0 2.6 7.8 0.00 0.00 0.00 39 1011.0
20260509010305 64 0 1.7 8.7 0.00 0.00 0.00 38 1011.2
20260509005803 63 0 1.7 5.2 0.00 0.00 0.00 45 1011.0
20260509005306 64 0 1.7 4.3 0.00 0.00 0.00 44 1010.8
20260509004804 64 0 2.6 8.7 0.00 0.00 0.00 44 1010.8
20260509004307 65 0 3.5 8.7 0.00 0.00 0.00 42 1010.7
20260509003308 66 0 2.6 10.4 0.00 0.00 0.00 37 1010.7
20260509002804 67 0 0.9 3.5 0.00 0.00 0.00 39 1010.5
20260509002306 67 0 0.9 2.6 0.00 0.00 0.00 38 1010.3
20260509001303 68 329 1.7 4.3 0.00 0.00 0.00 35 1010.3
20260509000304 69 209 0.0 0.9 0.00 0.00 0.00 36 1010.4
20260508235803 69 0 0.0 0.0 0.00 0.00 0.00 35 1010.3
20260508235306 69 0 0.0 1.7 0.00 0.00 0.00 37 1010.4
20260508234803 69 0 0.0 2.6 0.00 0.00 0.00 35 1010.4
20260508234302 69 0 0.9 2.6 0.00 0.00 0.00 34 1010.4
20260508233302 69 0 0.9 2.6 0.00 0.00 0.00 35 1010.3
20260508232803 69 0 0.9 1.7 0.00 0.00 0.00 35 1010.4
20260508232306 69 0 0.9 1.7 0.00 0.00 0.00 35 1010.4
20260508225804 68 0 2.6 6.1 0.00 0.00 0.00 33 1010.6
20260508225306 68 227 2.6 7.0 0.00 0.00 0.00 35 1010.7
20260508224804 68 112 1.7 7.0 0.00 0.00 0.00 36 1010.7
20260508224306 68 167 2.6 5.2 0.00 0.00 0.00 37 1010.7
20260508223306 68 124 1.7 6.1 0.00 0.00 0.00 36 1010.8
20260508222803 68 209 2.6 5.2 0.00 0.00 0.00 36 1010.9
20260508221805 68 142 1.7 4.3 0.00 0.00 0.00 37 1011.0
20260508221302 68 209 1.7 4.3 0.00 0.00 0.00 35 1011.2
20260508220803 68 148 1.7 4.3 0.00 0.00 0.00 36 1011.2
20260508215804 68 109 2.6 6.1 0.00 0.00 0.00 35 1011.3
20260508215306 68 194 2.6 6.1 0.00 0.00 0.00 36 1011.4
20260508214803 68 131 1.7 6.1 0.00 0.00 0.00 36 1011.4
20260508214304 68 0 1.7 7.0 0.00 0.00 0.00 37 1011.5
20260508213808 68 0 2.6 7.0 0.00 0.00 0.00 37 1011.5
20260508213306 68 0 1.7 7.8 0.00 0.00 0.00 37 1011.6
20260508212807 68 0 1.7 7.8 0.00 0.00 0.00 37 1011.6
20260508212307 67 0 0.9 4.3 0.00 0.00 0.00 37 1011.7
20260508211803 67 0 0.9 4.3 0.00 0.00 0.00 38 1011.7
20260508211302 67 0 0.9 3.5 0.00 0.00 0.00 38 1011.6
20260508210302 68 0 0.9 4.3 0.00 0.00 0.00 38 1011.7
20260508205803 68 0 0.9 4.3 0.00 0.00 0.00 38 1011.7
20260508205306 68 0 1.7 4.3 0.00 0.00 0.00 39 1011.7
20260508204804 68 0 1.7 5.2 0.00 0.00 0.00 39 1011.7
20260508204300 68 0 1.7 5.2 0.00 0.00 0.00 38 1011.7
20260508203753 68 218 2.6 6.1 0.00 0.00 0.00 38 1011.7
20260508203248 68 203 1.7 6.1 0.00 0.00 0.00 37 1011.8
20260508202743 68 129 1.7 4.3 0.00 0.00 0.00 38 1011.8
20260508202235 68 123 1.7 4.3 0.00 0.00 0.00 37 1011.8
20260508201736 68 115 1.7 4.3 0.00 0.00 0.00 37 1011.7
20260508201239 68 141 1.7 4.3 0.00 0.00 0.00 37 1011.8
20260508200736 68 190 1.7 4.3 0.00 0.00 0.00 38 1011.7
20260508200235 68 155 1.7 6.1 0.00 0.00 0.00 36 1011.9
20260508195736 68 111 1.7 6.1 0.00 0.00 0.00 37 1011.8
20260508195236 68 121 2.6 5.2 0.00 0.00 0.00 37 1011.9
20260508194736 69 92 2.6 7.0 0.00 0.00 0.00 34 1011.9
20260508194236 69 134 2.6 7.0 0.00 0.00 0.00 34 1012.0
20260508193737 69 237 3.5 8.7 0.00 0.00 0.00 34 1012.1
20260508193232 69 200 3.5 8.7 0.00 0.00 0.00 34 1012.0
20260508192732 69 242 2.6 8.7 0.00 0.00 0.00 34 1012.1
20260508192232 69 283 2.6 7.8 0.00 0.00 0.00 35 1012.1
20260508191731 69 124 2.6 6.1 0.00 0.00 0.00 35 1012.1
20260508190736 69 259 2.6 7.0 0.00 0.00 0.00 34 1012.4
20260508190234 68 140 3.5 8.7 0.00 0.00 0.00 37 1012.5
20260508185729 68 149 3.5 8.7 0.00 0.00 0.00 36 1012.5
20260508185228 68 194 2.6 8.7 0.00 0.00 0.00 36 1012.5
20260508184227 67 235 2.6 7.0 0.00 0.00 0.00 38 1012.6
20260508183725 67 223 2.6 7.0 0.00 0.00 0.00 36 1012.7
20260508183227 67 299 2.6 8.7 0.00 0.00 0.00 38 1012.8
20260508182728 67 235 2.6 8.7 0.00 0.00 0.00 36 1012.8
20260508182225 67 260 1.7 7.8 0.00 0.00 0.00 38 1012.8
20260508181726 67 239 1.7 7.8 0.00 0.00 0.00 38 1012.8
20260508181226 67 190 1.7 4.3 0.00 0.00 0.00 38 1012.9
20260508180727 66 185 1.7 7.0 0.00 0.00 0.00 39 1012.9
20260508180228 66 160 1.7 7.0 0.00 0.00 0.00 39 1013.0
20260508175726 66 253 1.7 5.2 0.00 0.00 0.00 40 1012.9
20260508175226 65 223 2.6 5.2 0.00 0.00 0.00 40 1013.0
20260508174727 65 219 1.7 5.2 0.00 0.00 0.00 42 1013.0
20260508174221 65 154 2.6 7.0 0.00 0.00 0.00 42 1013.0
20260508173717 64 205 2.6 7.0 0.00 0.00 0.00 44 1013.1
20260508173217 64 117 1.7 4.3 0.00 0.00 0.00 44 1013.2
20260508172717 64 248 1.7 4.3 0.00 0.00 0.00 45 1013.1
20260508172215 64 169 1.7 5.2 0.00 0.00 0.00 45 1013.0
20260508171715 64 151 2.6 7.8 0.00 0.00 0.00 44 1013.2
20260508171217 64 188 1.7 7.8 0.00 0.00 0.00 44 1013.2
20260508170213 63 191 1.7 5.2 0.00 0.00 0.00 48 1013.3
20260508165713 63 174 1.7 5.2 0.00 0.00 0.00 48 1013.3
20260508165213 63 41 1.7 5.2 0.00 0.00 0.00 48 1013.4
20260508164713 63 159 1.7 5.2 0.00 0.00 0.00 48 1013.4
20260508164213 62 0 1.7 3.5 0.00 0.00 0.00 53 1013.4
20260508163713 62 0 1.7 7.0 0.00 0.00 0.00 54 1013.4
20260508162713 61 0 1.7 4.3 0.00 0.00 0.00 55 1013.6
20260508161715 60 0 0.9 2.6 0.00 0.00 0.00 59 1013.6
20260508161213 60 0 1.7 2.6 0.00 0.00 0.00 59 1013.7
20260508160713 60 0 1.7 2.6 0.00 0.00 0.00 59 1013.7
20260508155715 59 0 0.9 2.6 0.00 0.00 0.00 60 1013.8
20260508155213 58 0 1.7 2.6 0.00 0.01 0.00 60 1013.8
20260508154714 58 0 1.7 2.6 0.00 0.01 0.00 61 1013.8
20260508154213 57 109 0.9 2.6 0.00 0.02 0.00 62 1013.9
20260508153213 57 0 0.0 0.0 0.00 0.02 0.00 61 1013.8
20260508152714 58 0 0.0 0.0 0.00 0.02 0.00 61 1013.8
20260508152214 57 0 0.0 0.9 0.00 0.02 0.00 62 1013.9
20260508151714 57 0 0.0 2.6 0.00 0.03 0.00 63 1014.1
20260508151214 56 0 0.0 2.6 0.00 0.03 0.00 64 1014.1
20260508150716 55 0 0.9 2.6 0.00 0.03 0.00 65 1014.1
20260508150214 55 0 0.9 2.6 0.00 0.03 0.00 65 1014.2
20260508145713 54 0 0.9 2.6 0.00 0.03 0.00 68 1014.2
20260508144713 52 74 0.9 1.7 0.00 0.03 0.00 69 1014.1
20260508144214 51 67 0.0 1.7 0.00 0.03 0.00 70 1014.2
20260508143209 49 31 0.0 1.7 0.00 0.03 0.00 73 1014.1
20260508142711 49 30 0.0 1.7 0.00 0.03 0.00 74 1014.2
20260508142209 48 26 0.0 1.7 0.00 0.03 0.00 77 1014.2
20260508141709 48 20 0.0 2.6 0.00 0.03 0.00 78 1014.2
20260508141210 48 18 0.0 2.6 0.00 0.03 0.00 80 1014.2
20260508140209 47 39 0.0 2.6 0.00 0.03 0.00 85 1014.2
20260508135710 47 316 0.0 0.9 0.00 0.03 0.00 85 1014.0
20260508135209 46 316 0.0 0.9 0.00 0.03 0.00 85 1014.0
20260508134709 46 317 0.0 0.0 0.00 0.03 0.00 85 1013.9
20260508134209 46 317 0.0 0.9 0.00 0.03 0.00 85 1014.0
20260508133708 46 317 0.0 1.7 0.00 0.03 0.00 85 1013.9
20260508133208 45 318 0.0 2.6 0.00 0.03 0.00 85 1014.0
20260508132705 45 316 0.0 2.6 0.00 0.03 0.00 85 1013.9
20260508132205 45 327 0.0 0.0 0.00 0.03 0.00 85 1013.8
20260508131703 45 328 0.0 0.0 0.00 0.03 0.00 85 1013.8
20260508131204 44 327 0.0 0.0 0.00 0.03 0.00 85 1013.7
20260508130703 44 327 0.0 0.0 0.00 0.03 0.00 85 1013.7
20260508130204 44 327 0.0 0.0 0.00 0.03 0.00 85 1013.7
20260508125703 44 327 0.0 0.0 0.00 0.03 0.00 85 1013.6
20260508125202 44 329 0.0 0.0 0.00 0.03 0.00 85 1013.6
20260508124204 44 329 0.0 0.0 0.00 0.03 0.00 84 1013.6
20260508123703 45 327 0.0 0.0 0.00 0.03 0.00 85 1013.6
20260508123202 45 327 0.0 0.0 0.00 0.03 0.00 85 1013.4
20260508122703 45 327 0.0 0.0 0.00 0.03 0.00 85 1013.6
20260508122202 45 327 0.0 0.0 0.00 0.03 0.00 85 1013.4
20260508121702 45 327 0.0 0.0 0.00 0.03 0.00 85 1013.7
20260508120703 44 327 0.0 0.0 0.00 0.03 0.00 84 1013.7
20260508120203 45 327 0.0 0.0 0.00 0.03 0.00 84 1013.8
20260508115706 45 327 0.0 1.7 0.00 0.03 0.00 84 1013.8
20260508115208 45 327 0.0 2.6 0.00 0.03 0.00 84 1013.7
20260508114708 45 327 0.0 2.6 0.00 0.03 0.00 84 1013.6
20260508114206 45 312 0.0 0.0 0.00 0.03 0.00 84 1013.6
20260508113706 45 312 0.0 0.0 0.00 0.03 0.00 84 1013.4
20260508112702 46 312 0.0 0.0 0.00 0.03 0.00 84 1013.1
20260508112203 46 312 0.0 0.0 0.00 0.03 0.00 84 1013.1
20260508111703 46 312 0.0 0.0 0.00 0.03 0.00 84 1013.2
20260508110704 46 312 0.0 0.0 0.00 0.03 0.00 84 1013.1
20260508110205 46 311 0.0 0.0 0.00 0.03 0.00 84 1013.2
20260508105704 45 332 0.0 0.0 0.00 0.03 0.00 83 1013.2
20260508105204 46 334 0.0 0.0 0.00 0.03 0.00 83 1013.1
20260508104702 46 334 0.0 0.0 0.00 0.03 0.00 83 1013.2
20260508104206 46 334 0.0 0.0 0.00 0.03 0.00 82 1013.1
20260508103202 46 334 0.0 0.0 0.00 0.03 0.00 82 1013.1
20260508102702 46 334 0.0 0.0 0.00 0.03 0.00 81 1013.1
20260508102204 46 334 0.0 0.0 0.00 0.03 0.00 80 1013.1
20260508101703 46 334 0.0 0.0 0.00 0.03 0.00 79 1013.1
20260508101203 46 334 0.0 0.0 0.00 0.03 0.00 77 1013.1
20260508100702 46 334 0.0 0.0 0.00 0.03 0.00 76 1013.1
20260508100207 46 334 0.0 0.0 0.00 0.03 0.00 77 1013.0
20260508095705 46 334 0.0 0.0 0.00 0.03 0.00 76 1013.1
20260508095207 46 334 0.0 0.0 0.00 0.03 0.00 76 1013.0
20260508094708 47 334 0.0 0.0 0.00 0.03 0.00 77 1013.0
20260508094206 47 334 0.0 0.0 0.00 0.03 0.00 78 1013.0
20260508093705 47 334 0.0 0.0 0.00 0.03 0.00 76 1013.0
20260508092702 47 334 0.0 0.0 0.00 0.03 0.00 75 1013.1
20260508092203 47 334 0.0 0.0 0.00 0.03 0.00 75 1013.0
20260508091705 48 334 0.0 0.0 0.00 0.03 0.00 75 1013.0
20260508090703 48 334 0.0 0.9 0.00 0.03 0.00 75 1013.0
20260508090202 48 334 0.0 2.6 0.00 0.03 0.00 75 1013.0
20260508085703 48 334 0.9 2.6 0.00 0.03 0.00 74 1012.9
20260508085202 48 334 0.0 2.6 0.00 0.03 0.00 74 1013.0
20260508084703 49 331 0.0 0.0 0.00 0.03 0.00 75 1012.8
20260508083706 49 331 0.0 0.0 0.00 0.03 0.00 74 1012.9
20260508083201 49 331 0.0 0.0 0.00 0.03 0.00 74 1012.8
20260508082656 49 331 0.0 0.9 0.00 0.03 0.00 74 1012.9
20260508081643 49 329 0.0 0.0 0.00 0.03 0.00 71 1013.0
20260508081136 49 329 0.0 1.7 0.00 0.03 0.00 71 1012.9
20260508080634 49 329 0.9 1.7 0.00 0.03 0.00 70 1012.9
20260508080133 50 330 0.0 1.7 0.00 0.03 0.00 71 1012.9
20260508075633 50 330 0.0 0.9 0.00 0.03 0.00 71 1012.9
20260508075134 50 330 0.0 0.9 0.00 0.03 0.00 71 1012.9
20260508074633 50 321 0.0 0.0 0.00 0.03 0.00 71 1012.9
20260508074133 50 321 0.0 0.0 0.00 0.03 0.00 71 1012.9
20260508073635 50 321 0.0 0.0 0.00 0.03 0.00 71 1012.8
20260508073133 50 321 0.0 0.0 0.00 0.03 0.00 71 1012.8
20260508072631 50 321 0.0 0.0 0.00 0.03 0.00 71 1012.9
20260508071631 50 317 0.0 0.0 0.00 0.03 0.00 71 1012.9
20260508070633 51 317 0.0 0.0 0.00 0.05 0.00 69 1012.7
20260508070131 51 317 0.0 0.0 0.00 0.06 0.00 70 1012.7
20260508065631 51 317 0.0 0.0 0.00 0.07 0.00 71 1012.7
20260508065130 51 317 0.0 0.0 0.00 0.08 0.00 71 1012.7
20260508064630 51 317 0.0 0.0 0.00 0.08 0.00 71 1012.6
20260508064130 51 317 0.0 0.0 0.00 0.08 0.00 70 1012.7
20260508063623 51 317 0.0 0.0 0.00 0.08 0.00 70 1012.7
20260508062623 51 317 0.0 0.0 0.00 0.08 0.00 69 1012.7
20260508062122 51 317 0.0 0.0 0.00 0.08 0.00 69 1012.7
20260508061622 51 317 0.0 0.0 0.00 0.08 0.00 68 1012.7
20260508060621 51 317 0.0 0.0 0.00 0.08 0.00 69 1012.7
20260508060120 51 317 0.0 0.0 0.00 0.08 0.00 69 1012.6